Terug naar catalogus

HULIANWANG DIGUI-66

ActiefCommunicatiePO
NORAD 65172·PAYLOAD·🇨🇳 China

Gelanceerd Aug 13, 2025 vanaf Wenchang Space Launch Site

Loading…

Volgende Passages (komende 24 uur)

TLE

VersSource: Space-Track

Epoch: Sep 14, 2026, 22:04 UTC

1 65172U 25174J   26257.91997183  .00000054  00000-0  91532-4 0  9992
2 65172  86.4931 221.5767 0002259  78.7697 281.3691 13.24399442 52666

Volg HULIANWANG DIGUI-66 in realtime met AllMySat

Download on the App Store